JBU544 KPBI-KISP

Flight info

Callsign JBU544
Flight time 2h 28m
Altitude 37000
Route SLIDZ3 LENDS PELCN Y309 FLRDA SAGGY CHIEZ Q161 KALDA SARDI1
Aircraft A320/M-SDFGHIJ4RWX/LB1D1

Departure

Time 2026-05-06 09:49
Airport Palm Beach International Airport (KPBI)

Arrival

Time 2026-05-06 12:17
Airport Long Island MacArthur Airport (KISP)
Time Latitude Longitude Altitude Speed Heading
2026-05-06 09:31 26.68530 -80.08933 35 ft 0 kts
2026-05-06 09:38 26.68528 -80.08933 34 ft 2 kts
2026-05-06 09:39 26.68502 -80.08933 34 ft 4 kts 354°
2026-05-06 09:39 26.68475 -80.08928 34 ft 4 kts 343°
2026-05-06 09:39 26.68452 -80.08916 34 ft 4 kts 312°
2026-05-06 09:39 26.68444 -80.08901 34 ft 0 kts 272°
2026-05-06 09:42 26.68444 -80.08905 34 ft 1 kts 272°
2026-05-06 09:43 26.68445 -80.08924 34 ft 4 kts 272°
2026-05-06 09:43 26.68446 -80.08961 34 ft 6 kts 272°
2026-05-06 09:43 26.68448 -80.09015 34 ft 8 kts 272°
2026-05-06 09:43 26.68443 -80.09083 34 ft 10 kts 233°
2026-05-06 09:44 26.68377 -80.09102 34 ft 9 kts 190°
2026-05-06 09:44 26.68359 -80.09166 34 ft 11 kts 275°
2026-05-06 09:44 26.68366 -80.09256 34 ft 13 kts 274°
2026-05-06 09:44 26.68371 -80.09364 34 ft 15 kts 273°
2026-05-06 09:45 26.68376 -80.09488 34 ft 17 kts 272°
2026-05-06 09:45 26.68382 -80.09630 34 ft 19 kts 272°
2026-05-06 09:45 26.68389 -80.09786 34 ft 21 kts 272°
2026-05-06 09:45 26.68396 -80.09961 34 ft 24 kts 272°
2026-05-06 09:46 26.68404 -80.10152 34 ft 26 kts 272°
2026-05-06 09:46 26.68411 -80.10312 34 ft 12 kts 272°
2026-05-06 09:46 26.68415 -80.10412 34 ft 14 kts 272°
2026-05-06 09:46 26.68420 -80.10530 34 ft 16 kts 272°
2026-05-06 09:47 26.68425 -80.10664 34 ft 18 kts 272°
2026-05-06 09:47 26.68429 -80.10768 34 ft 3 kts 272°
2026-05-06 09:47 26.68423 -80.10796 34 ft 5 kts 227°
2026-05-06 09:47 26.68384 -80.10805 34 ft 7 kts 182°
2026-05-06 09:48 26.68329 -80.10803 34 ft 9 kts 158°
2026-05-06 09:48 26.68312 -80.10742 34 ft 11 kts 89°
2026-05-06 09:48 26.68303 -80.10472 34 ft 69 kts 92°
2026-05-06 09:48 26.68267 -80.09672 35 ft 134 kts 92°
2026-05-06 09:49 26.68223 -80.08466 253 ft 162 kts 92°
2026-05-06 09:49 26.68141 -80.07241 993 ft 156 kts 95°
2026-05-06 09:49 26.68047 -80.06025 1645 ft 158 kts 90°
2026-05-06 09:49 26.68311 -80.04780 1936 ft 176 kts 64°
2026-05-06 09:50 26.68940 -80.03561 2284 ft 190 kts 59°
2026-05-06 09:50 26.69624 -80.02230 2657 ft 206 kts 62°
2026-05-06 09:50 26.70314 -80.00741 3030 ft 224 kts 64°
2026-05-06 09:50 26.71034 -79.99131 3535 ft 238 kts 63°
2026-05-06 09:51 26.71857 -79.97457 4055 ft 253 kts 55°
2026-05-06 09:51 26.72975 -79.95876 4639 ft 265 kts 48°
2026-05-06 09:51 26.74224 -79.94334 5387 ft 269 kts 47°
2026-05-06 09:51 26.75494 -79.92772 6147 ft 274 kts 47°
2026-05-06 09:52 26.76739 -79.91177 6880 ft 278 kts 49°
2026-05-06 09:52 26.77997 -79.89518 7594 ft 282 kts 49°
2026-05-06 09:52 26.79276 -79.87837 8291 ft 286 kts 48°
2026-05-06 09:52 26.80583 -79.86144 8963 ft 289 kts 48°
2026-05-06 09:53 26.81911 -79.84431 9620 ft 293 kts 47°
2026-05-06 09:53 26.83250 -79.82696 10266 ft 297 kts 47°
2026-05-06 09:53 26.84624 -79.80919 10702 ft 308 kts 47°
2026-05-06 09:53 26.86061 -79.79059 11032 ft 322 kts 47°
2026-05-06 09:54 26.87558 -79.77117 11337 ft 336 kts 47°
2026-05-06 09:54 26.89094 -79.75121 11604 ft 350 kts 47°
2026-05-06 09:54 26.90713 -79.73020 11893 ft 362 kts 47°
2026-05-06 09:54 26.92382 -79.70885 12411 ft 365 kts 44°
2026-05-06 09:55 26.94188 -79.68877 12953 ft 367 kts 41°
2026-05-06 09:55 26.96057 -79.66907 13482 ft 370 kts 40°
2026-05-06 09:55 26.97958 -79.64944 13997 ft 373 kts 40°
2026-05-06 09:55 26.99869 -79.62962 14506 ft 376 kts 40°
2026-05-06 09:56 27.01787 -79.60951 14996 ft 379 kts 40°
2026-05-06 09:56 27.03710 -79.58917 15479 ft 382 kts 40°
2026-05-06 09:56 27.05622 -79.56889 15947 ft 385 kts 40°
2026-05-06 09:56 27.07576 -79.54817 16417 ft 388 kts 40°
2026-05-06 09:57 27.09542 -79.52736 16869 ft 390 kts 40°
2026-05-06 09:57 27.11527 -79.50639 17321 ft 393 kts 40°
2026-05-06 09:57 27.13525 -79.48528 17760 ft 396 kts 40°
2026-05-06 09:57 27.15535 -79.46400 18194 ft 399 kts 40°
2026-05-06 09:58 27.17556 -79.44254 18618 ft 401 kts 40°
2026-05-06 09:58 27.19593 -79.42092 19031 ft 404 kts 39°
2026-05-06 09:58 27.21616 -79.39949 19433 ft 406 kts 39°
2026-05-06 09:58 27.23680 -79.37764 19841 ft 409 kts 39°
2026-05-06 09:59 27.25755 -79.35565 20235 ft 411 kts 39°
2026-05-06 09:59 27.27839 -79.33354 20623 ft 413 kts 39°
2026-05-06 09:59 27.29933 -79.31127 21001 ft 416 kts 39°
2026-05-06 09:59 27.32041 -79.28882 21365 ft 418 kts 39°
2026-05-06 10:00 27.34156 -79.26628 21717 ft 420 kts 39°
2026-05-06 10:00 27.36284 -79.24363 22049 ft 423 kts 39°
2026-05-06 10:00 27.38398 -79.22112 22368 ft 425 kts 39°
2026-05-06 10:00 27.40549 -79.19822 22692 ft 427 kts 38°
2026-05-06 10:01 27.42711 -79.17520 23014 ft 429 kts 38°
2026-05-06 10:01 27.44882 -79.15205 23320 ft 431 kts 38°
2026-05-06 10:01 27.47063 -79.12879 23618 ft 433 kts 38°
2026-05-06 10:01 27.49247 -79.10539 23900 ft 435 kts 38°
2026-05-06 10:02 27.51442 -79.08185 24188 ft 437 kts 38°
2026-05-06 10:02 27.53645 -79.05824 24474 ft 438 kts 38°
2026-05-06 10:02 27.55860 -79.03453 24755 ft 440 kts 38°
2026-05-06 10:02 27.58082 -79.01076 25030 ft 441 kts 38°
2026-05-06 10:03 27.60285 -78.98722 25306 ft 443 kts 38°
2026-05-06 10:03 27.62524 -78.96325 25578 ft 445 kts 38°
2026-05-06 10:03 27.64801 -78.93965 25841 ft 443 kts 33°
2026-05-06 10:03 27.67322 -78.92029 26120 ft 436 kts 22°
2026-05-06 10:04 27.70098 -78.90741 26378 ft 428 kts 10°
2026-05-06 10:04 27.73003 -78.90143 26657 ft 423 kts
2026-05-06 10:04 27.75934 -78.89795 26927 ft 424 kts
2026-05-06 10:04 27.78873 -78.89480 27201 ft 425 kts
2026-05-06 10:05 27.81778 -78.89131 27471 ft 427 kts
2026-05-06 10:05 27.84728 -78.88718 27749 ft 428 kts
2026-05-06 10:05 27.87685 -78.88271 28033 ft 429 kts
2026-05-06 10:05 27.90647 -78.87823 28306 ft 430 kts
2026-05-06 10:06 27.93617 -78.87395 28570 ft 431 kts
2026-05-06 10:06 27.96596 -78.86983 28828 ft 432 kts
2026-05-06 10:06 27.99582 -78.86575 29087 ft 433 kts
2026-05-06 10:06 28.02574 -78.86159 29356 ft 434 kts
2026-05-06 10:07 28.05565 -78.85734 29709 ft 432 kts
2026-05-06 10:07 28.08501 -78.85314 30088 ft 430 kts
2026-05-06 10:07 28.11464 -78.84893 30429 ft 429 kts
2026-05-06 10:07 28.14415 -78.84477 30773 ft 427 kts
2026-05-06 10:08 28.17362 -78.84063 31113 ft 426 kts
2026-05-06 10:08 28.20295 -78.83649 31479 ft 424 kts
2026-05-06 10:08 28.23216 -78.83236 31816 ft 422 kts
2026-05-06 10:08 28.26131 -78.82823 32121 ft 422 kts
2026-05-06 10:09 28.28999 -78.82415 32448 ft 420 kts
2026-05-06 10:09 28.31897 -78.82005 32752 ft 419 kts
2026-05-06 10:09 28.34783 -78.81595 33063 ft 418 kts
2026-05-06 10:09 28.37669 -78.81186 33357 ft 417 kts
2026-05-06 10:10 28.40542 -78.80779 33648 ft 416 kts
2026-05-06 10:10 28.43405 -78.80372 33962 ft 414 kts
2026-05-06 10:10 28.46260 -78.79966 34239 ft 413 kts
2026-05-06 10:10 28.49104 -78.79561 34521 ft 411 kts
2026-05-06 10:11 28.51937 -78.79157 34797 ft 410 kts
2026-05-06 10:11 28.54763 -78.78754 35065 ft 409 kts
2026-05-06 10:11 28.57544 -78.78359 35288 ft 408 kts
2026-05-06 10:11 28.60363 -78.77957 35534 ft 407 kts
2026-05-06 10:12 28.63167 -78.77557 35771 ft 406 kts 360°
2026-05-06 10:12 28.65967 -78.77158 35993 ft 405 kts 360°
2026-05-06 10:12 28.68756 -78.76760 36218 ft 404 kts 360°
2026-05-06 10:12 28.71544 -78.76361 36395 ft 403 kts 360°
2026-05-06 10:13 28.74326 -78.75964 36580 ft 403 kts 359°
2026-05-06 10:13 28.77101 -78.75568 36797 ft 401 kts 359°
2026-05-06 10:13 28.79830 -78.75177 36978 ft 400 kts 359°
2026-05-06 10:13 28.82591 -78.74783 37093 ft 399 kts 359°
2026-05-06 10:14 28.88099 -78.73992 37080 ft 399 kts 359°
2026-05-06 10:14 28.93607 -78.73204 37077 ft 399 kts 359°
2026-05-06 10:15 28.99115 -78.72414 37076 ft 399 kts 359°
2026-05-06 10:15 29.04596 -78.71627 37075 ft 400 kts 359°
2026-05-06 10:16 29.10105 -78.70833 37105 ft 398 kts 359°
2026-05-06 10:16 29.15602 -78.70042 37099 ft 398 kts 359°
2026-05-06 10:17 29.21101 -78.69249 37078 ft 398 kts 359°
2026-05-06 10:17 29.26600 -78.68456 37042 ft 398 kts 359°
2026-05-06 10:18 29.32103 -78.67660 37031 ft 398 kts 359°
2026-05-06 10:18 29.37562 -78.66678 37018 ft 406 kts
2026-05-06 10:19 29.42998 -78.64782 37027 ft 410 kts
2026-05-06 10:19 29.48417 -78.62734 37080 ft 409 kts
2026-05-06 10:20 29.53840 -78.60777 37108 ft 408 kts
2026-05-06 10:20 29.59226 -78.58854 37115 ft 408 kts
2026-05-06 10:21 29.64635 -78.56889 37112 ft 407 kts
2026-05-06 10:21 29.70035 -78.54928 37082 ft 407 kts
2026-05-06 10:22 29.75434 -78.52973 37043 ft 407 kts
2026-05-06 10:22 29.80797 -78.51027 37027 ft 407 kts
2026-05-06 10:23 29.86203 -78.49061 37044 ft 407 kts
2026-05-06 10:23 29.91603 -78.47092 37099 ft 407 kts
2026-05-06 10:24 29.96996 -78.45128 37118 ft 406 kts
2026-05-06 10:24 30.02392 -78.43159 37110 ft 406 kts
2026-05-06 10:25 30.07739 -78.41205 37112 ft 405 kts
2026-05-06 10:25 30.13123 -78.39285 37073 ft 401 kts
2026-05-06 10:26 30.18548 -78.38263 37035 ft 393 kts 358°
2026-05-06 10:26 30.23978 -78.37535 37021 ft 393 kts 358°
2026-05-06 10:27 30.29416 -78.36735 37036 ft 394 kts 359°
2026-05-06 10:27 30.34818 -78.35900 37062 ft 394 kts 359°
2026-05-06 10:28 30.40262 -78.35088 37026 ft 395 kts 358°
2026-05-06 10:28 30.45725 -78.33995 37038 ft 400 kts
2026-05-06 10:29 30.51188 -78.32688 37093 ft 401 kts
2026-05-06 10:29 30.56606 -78.31409 37114 ft 400 kts
2026-05-06 10:30 30.62053 -78.30147 37135 ft 398 kts
2026-05-06 10:30 30.67476 -78.28876 37106 ft 397 kts
2026-05-06 10:31 30.72876 -78.27610 37063 ft 395 kts
2026-05-06 10:31 30.78235 -78.26354 37049 ft 395 kts
2026-05-06 10:32 30.83637 -78.25088 37046 ft 397 kts
2026-05-06 10:32 30.89059 -78.23815 37048 ft 399 kts
2026-05-06 10:33 30.94512 -78.22532 37046 ft 401 kts
2026-05-06 10:33 30.99963 -78.21312 37068 ft 402 kts
2026-05-06 10:34 31.05461 -78.20120 37126 ft 402 kts
2026-05-06 10:34 31.10964 -78.18892 37125 ft 403 kts
2026-05-06 10:35 31.16459 -78.17661 37129 ft 402 kts
2026-05-06 10:35 31.21907 -78.16451 37122 ft 401 kts
2026-05-06 10:36 31.27382 -78.15230 37088 ft 400 kts
2026-05-06 10:36 31.32848 -78.14006 37046 ft 400 kts
2026-05-06 10:37 31.38311 -78.12785 37033 ft 400 kts
2026-05-06 10:37 31.43780 -78.11603 37035 ft 398 kts 359°
2026-05-06 10:38 31.49225 -78.10668 37036 ft 399 kts 358°
2026-05-06 10:38 31.54726 -78.09749 37070 ft 399 kts 358°
2026-05-06 10:39 31.60225 -78.08803 37128 ft 399 kts 358°
2026-05-06 10:39 31.65720 -78.07858 37126 ft 399 kts 358°
2026-05-06 10:40 31.71166 -78.06927 37114 ft 398 kts 358°
2026-05-06 10:40 31.76646 -78.05987 37101 ft 398 kts 358°
2026-05-06 10:41 31.82121 -78.05047 37080 ft 398 kts 358°
2026-05-06 10:41 31.87595 -78.04105 37059 ft 398 kts 358°
2026-05-06 10:42 31.93033 -78.03168 37050 ft 398 kts 358°
2026-05-06 10:42 31.98507 -78.02225 37050 ft 398 kts 358°
2026-05-06 10:43 32.03984 -78.01279 37056 ft 398 kts 358°
2026-05-06 10:44 32.12196 -77.99860 37069 ft 398 kts 358°
2026-05-06 10:44 32.17636 -77.98918 37086 ft 398 kts 358°
2026-05-06 10:45 32.23107 -77.97969 37102 ft 398 kts 358°
2026-05-06 10:45 32.28582 -77.97019 37121 ft 398 kts 358°
2026-05-06 10:46 32.34057 -77.96068 37136 ft 398 kts 358°
2026-05-06 10:46 32.39535 -77.95115 37130 ft 398 kts 358°
2026-05-06 10:47 32.44984 -77.94165 37133 ft 398 kts 358°
2026-05-06 10:47 32.50464 -77.93209 37132 ft 398 kts 358°
2026-05-06 10:48 32.55951 -77.92252 37131 ft 398 kts 358°
2026-05-06 10:48 32.61432 -77.91294 37130 ft 398 kts 358°
2026-05-06 10:49 32.66878 -77.90340 37104 ft 399 kts 358°
2026-05-06 10:49 32.72367 -77.89378 37062 ft 399 kts 358°
2026-05-06 10:50 32.77867 -77.88413 37043 ft 400 kts 358°
2026-05-06 10:50 32.83370 -77.87447 37046 ft 400 kts 358°
2026-05-06 10:51 32.88880 -77.86476 37078 ft 400 kts 358°
2026-05-06 10:51 32.94352 -77.85511 37088 ft 401 kts 358°
2026-05-06 10:52 32.99876 -77.84540 37068 ft 401 kts 358°
2026-05-06 10:52 33.05399 -77.83564 37098 ft 401 kts 358°
2026-05-06 10:53 33.10923 -77.82586 37118 ft 401 kts 358°
2026-05-06 10:53 33.16449 -77.81608 37103 ft 402 kts 358°
2026-05-06 10:54 33.21948 -77.80635 37068 ft 402 kts 358°
2026-05-06 10:54 33.27480 -77.79651 37088 ft 402 kts 358°
2026-05-06 10:55 33.33011 -77.78669 37070 ft 402 kts 358°
2026-05-06 10:55 33.38558 -77.77683 37047 ft 403 kts 358°
2026-05-06 10:56 33.44070 -77.76698 37057 ft 403 kts 358°
2026-05-06 10:56 33.49617 -77.75709 37071 ft 403 kts 358°
2026-05-06 10:57 33.55171 -77.74718 37056 ft 404 kts 358°
2026-05-06 10:57 33.60736 -77.73723 37056 ft 404 kts 358°
2026-05-06 10:58 33.66304 -77.72724 37076 ft 404 kts 358°
2026-05-06 10:58 33.71832 -77.71621 37098 ft 407 kts 359°
2026-05-06 10:59 33.77400 -77.70399 37138 ft 406 kts 359°
2026-05-06 10:59 33.82962 -77.69180 37132 ft 406 kts 359°
2026-05-06 11:00 33.88526 -77.67972 37130 ft 406 kts 359°
2026-05-06 11:00 33.94052 -77.66767 37129 ft 406 kts 359°
2026-05-06 11:01 33.99612 -77.65547 37126 ft 406 kts 359°
2026-05-06 11:01 34.05174 -77.64331 37102 ft 406 kts 359°
2026-05-06 11:02 34.10740 -77.63111 37060 ft 407 kts 359°
2026-05-06 11:02 34.16313 -77.61886 37040 ft 407 kts 359°
2026-05-06 11:03 34.21858 -77.60667 37037 ft 408 kts 359°
2026-05-06 11:03 34.27444 -77.59438 37079 ft 408 kts 359°
2026-05-06 11:04 34.33030 -77.58206 37118 ft 408 kts 359°
2026-05-06 11:04 34.38616 -77.56975 37120 ft 408 kts 359°
2026-05-06 11:05 34.44202 -77.55742 37120 ft 408 kts 360°
2026-05-06 11:05 34.49794 -77.54495 37124 ft 409 kts
2026-05-06 11:05 34.52537 -77.53593 37114 ft 421 kts
2026-05-06 11:06 34.55260 -77.52167 37109 ft 430 kts 14°
2026-05-06 11:06 34.60620 -77.48845 37087 ft 434 kts 16°
2026-05-06 11:07 34.65983 -77.45532 37095 ft 431 kts 14°
2026-05-06 11:07 34.71378 -77.42358 37095 ft 431 kts 14°
2026-05-06 11:08 34.76759 -77.39147 37104 ft 431 kts 15°
2026-05-06 11:08 34.82099 -77.35910 37100 ft 432 kts 15°
2026-05-06 11:09 34.87482 -77.32670 37113 ft 431 kts 15°
2026-05-06 11:09 34.92862 -77.29439 37124 ft 431 kts 15°
2026-05-06 11:10 34.98248 -77.26184 37092 ft 432 kts 15°
2026-05-06 11:10 35.03600 -77.22939 37090 ft 432 kts 15°
2026-05-06 11:11 35.08985 -77.19677 37089 ft 432 kts 15°
2026-05-06 11:11 35.14374 -77.16409 37094 ft 432 kts 15°
2026-05-06 11:12 35.19757 -77.13138 37100 ft 432 kts 15°
2026-05-06 11:12 35.25141 -77.09867 37100 ft 432 kts 15°
2026-05-06 11:13 35.30527 -77.06585 37102 ft 432 kts 15°
2026-05-06 11:13 35.35878 -77.03318 37112 ft 432 kts 15°
2026-05-06 11:14 35.41262 -77.00031 37121 ft 432 kts 15°
2026-05-06 11:14 35.46644 -76.96733 37132 ft 432 kts 15°
2026-05-06 11:15 35.52023 -76.93437 37134 ft 433 kts 15°
2026-05-06 11:15 35.57374 -76.90153 37133 ft 433 kts 15°
2026-05-06 11:16 35.62760 -76.86864 37131 ft 432 kts 15°
2026-05-06 11:16 35.68152 -76.83608 37130 ft 432 kts 15°
2026-05-06 11:17 35.73538 -76.80328 37125 ft 432 kts 15°
2026-05-06 11:17 35.78925 -76.77037 37094 ft 432 kts 15°
2026-05-06 11:18 35.84280 -76.73771 37070 ft 433 kts 15°
2026-05-06 11:18 35.89672 -76.70468 37062 ft 433 kts 15°
2026-05-06 11:19 35.95017 -76.66957 37038 ft 437 kts 18°
2026-05-06 11:19 36.00347 -76.63340 37038 ft 437 kts 18°
2026-05-06 11:20 36.05692 -76.59727 37039 ft 438 kts 18°
2026-05-06 11:20 36.11049 -76.56113 37055 ft 439 kts 18°
2026-05-06 11:21 36.16371 -76.52508 37113 ft 439 kts 18°
2026-05-06 11:21 36.21727 -76.48876 37123 ft 439 kts 18°
2026-05-06 11:22 36.27082 -76.45238 37120 ft 439 kts 18°
2026-05-06 11:22 36.32434 -76.41594 37111 ft 439 kts 18°
2026-05-06 11:23 36.37785 -76.37950 37080 ft 439 kts 18°
2026-05-06 11:23 36.43098 -76.34326 37054 ft 439 kts 18°
2026-05-06 11:24 36.48450 -76.30669 37037 ft 439 kts 18°
2026-05-06 11:24 36.53802 -76.27009 37031 ft 439 kts 18°
2026-05-06 11:25 36.59116 -76.23363 37033 ft 439 kts 18°
2026-05-06 11:25 36.64465 -76.19691 37016 ft 440 kts 18°
2026-05-06 11:26 36.69826 -76.16000 37018 ft 441 kts 18°
2026-05-06 11:26 36.75192 -76.12306 37049 ft 440 kts 18°
2026-05-06 11:27 36.80557 -76.08605 37063 ft 441 kts 18°
2026-05-06 11:27 36.85896 -76.04914 37028 ft 442 kts 18°
2026-05-06 11:28 36.91273 -76.01191 37041 ft 442 kts 18°
2026-05-06 11:28 36.96652 -75.97458 37014 ft 443 kts 19°
2026-05-06 11:29 37.02029 -75.93721 37052 ft 441 kts 19°
2026-05-06 11:29 37.07362 -75.90022 37071 ft 440 kts 17°
2026-05-06 11:29 37.10119 -75.88501 37064 ft 427 kts
2026-05-06 11:30 37.12940 -75.87417 37055 ft 423 kts
2026-05-06 11:30 37.18621 -75.85566 37014 ft 422 kts
2026-05-06 11:31 37.24309 -75.83658 36982 ft 424 kts
2026-05-06 11:31 37.29955 -75.81642 36980 ft 425 kts
2026-05-06 11:32 37.35654 -75.79655 36981 ft 425 kts
2026-05-06 11:32 37.41362 -75.77682 37026 ft 425 kts
2026-05-06 11:33 37.47069 -75.75688 37022 ft 426 kts
2026-05-06 11:33 37.52794 -75.73685 36991 ft 427 kts
2026-05-06 11:34 37.58520 -75.71679 37022 ft 427 kts
2026-05-06 11:34 37.64246 -75.69672 37026 ft 427 kts
2026-05-06 11:35 37.69947 -75.67673 36990 ft 429 kts
2026-05-06 11:35 37.75691 -75.65651 37007 ft 428 kts
2026-05-06 11:36 37.81434 -75.63624 37024 ft 429 kts
2026-05-06 11:36 37.84273 -75.62343 37018 ft 440 kts 14°
2026-05-06 11:36 37.86984 -75.60422 37011 ft 452 kts 22°
2026-05-06 11:37 37.92135 -75.55849 37020 ft 457 kts 26°
2026-05-06 11:37 37.97295 -75.51166 37044 ft 455 kts 24°
2026-05-06 11:38 38.02527 -75.46682 37063 ft 453 kts 23°
2026-05-06 11:38 38.07784 -75.42275 37037 ft 452 kts 22°
2026-05-06 11:39 38.13029 -75.37974 36995 ft 452 kts 22°
2026-05-06 11:39 38.18322 -75.33664 36957 ft 452 kts 22°
2026-05-06 11:40 38.23624 -75.29341 36960 ft 452 kts 21°
2026-05-06 11:40 38.26362 -75.27492 36967 ft 440 kts 13°
2026-05-06 11:40 38.29189 -75.26031 36963 ft 437 kts 11°
2026-05-06 11:41 38.34895 -75.23387 36988 ft 436 kts
2026-05-06 11:41 38.40556 -75.20709 37046 ft 438 kts 11°
2026-05-06 11:42 38.46243 -75.17903 37045 ft 438 kts 11°
2026-05-06 11:42 38.51939 -75.15134 37040 ft 437 kts 11°
2026-05-06 11:43 38.57628 -75.12380 37028 ft 437 kts 11°
2026-05-06 11:43 38.63302 -75.09532 36989 ft 443 kts 15°
2026-05-06 11:44 38.68467 -75.04978 36946 ft 466 kts 32°
2026-05-06 11:44 38.70859 -75.02160 36930 ft 468 kts 34°
2026-05-06 11:44 38.75582 -74.96416 36924 ft 466 kts 33°
2026-05-06 11:45 38.80451 -74.91039 36931 ft 458 kts 28°
2026-05-06 11:45 38.84592 -74.86849 36935 ft 455 kts 28°
2026-05-06 11:46 38.90358 -74.80894 36971 ft 463 kts 30°
2026-05-06 11:46 38.95360 -74.75638 36980 ft 464 kts 30°
2026-05-06 11:47 38.99534 -74.71282 36986 ft 465 kts 29°
2026-05-06 11:47 39.04547 -74.66024 36920 ft 464 kts 30°
2026-05-06 11:48 39.07844 -74.62541 36303 ft 462 kts 30°
2026-05-06 11:48 39.10340 -74.59915 35434 ft 467 kts 30°
2026-05-06 11:48 39.12892 -74.57245 34274 ft 479 kts 31°
2026-05-06 11:48 39.14617 -74.55441 33592 ft 485 kts 31°
2026-05-06 11:49 39.17231 -74.52652 32644 ft 491 kts 33°
2026-05-06 11:49 39.19846 -74.49776 31641 ft 498 kts 34°
2026-05-06 11:49 39.22479 -74.46841 30606 ft 503 kts 35°
2026-05-06 11:49 39.25153 -74.43884 29528 ft 509 kts 35°
2026-05-06 11:50 39.28786 -74.39927 28306 ft 511 kts 35°
2026-05-06 11:50 39.31451 -74.37026 27725 ft 504 kts 36°
2026-05-06 11:50 39.33250 -74.35049 27331 ft 500 kts 36°
2026-05-06 11:50 39.35885 -74.32137 26550 ft 497 kts 36°
2026-05-06 11:51 39.38465 -74.29282 25950 ft 491 kts 37°
2026-05-06 11:51 39.41043 -74.26426 25240 ft 486 kts 37°
2026-05-06 11:51 39.43601 -74.23601 24344 ft 480 kts 37°
2026-05-06 11:51 39.46126 -74.20817 23468 ft 473 kts 37°
2026-05-06 11:52 39.48607 -74.18074 22625 ft 466 kts 37°
2026-05-06 11:52 39.51051 -74.15350 21786 ft 460 kts 38°
2026-05-06 11:52 39.53297 -74.12456 21218 ft 451 kts 46°
2026-05-06 11:52 39.55310 -74.09398 21003 ft 441 kts 48°
2026-05-06 11:53 39.57240 -74.06340 20963 ft 438 kts 49°
2026-05-06 11:53 39.59127 -74.03306 20944 ft 437 kts 49°
2026-05-06 11:53 39.61030 -74.00266 20646 ft 432 kts 49°
2026-05-06 11:53 39.62939 -73.97264 19980 ft 431 kts 48°
2026-05-06 11:54 39.64876 -73.94250 18980 ft 439 kts 48°
2026-05-06 11:54 39.66846 -73.91188 18133 ft 443 kts 49°
2026-05-06 11:54 39.68795 -73.88127 17658 ft 436 kts 49°
2026-05-06 11:54 39.70685 -73.85133 17399 ft 423 kts 49°
2026-05-06 11:55 39.72529 -73.82212 17153 ft 417 kts 49°
2026-05-06 11:55 39.74373 -73.79300 16906 ft 417 kts 49°
2026-05-06 11:55 39.76190 -73.76432 16660 ft 416 kts 49°
2026-05-06 11:55 39.78025 -73.73534 16407 ft 415 kts 49°
2026-05-06 11:56 39.79854 -73.70642 16159 ft 413 kts 50°
2026-05-06 11:56 39.81675 -73.67756 15910 ft 412 kts 50°
2026-05-06 11:56 39.83490 -73.64874 15662 ft 411 kts 50°
2026-05-06 11:56 39.85299 -73.62004 15407 ft 409 kts 50°
2026-05-06 11:57 39.87101 -73.59145 15157 ft 407 kts 50°
2026-05-06 11:57 39.88892 -73.56296 14904 ft 407 kts 50°
2026-05-06 11:57 39.90733 -73.53577 14651 ft 404 kts 44°
2026-05-06 11:57 39.92777 -73.51065 14408 ft 403 kts 41°
2026-05-06 11:58 39.94858 -73.48629 14160 ft 402 kts 40°
2026-05-06 11:58 39.96950 -73.46221 13904 ft 401 kts 40°
2026-05-06 11:58 39.99034 -73.43803 13649 ft 400 kts 41°
2026-05-06 11:58 40.01097 -73.41372 13399 ft 400 kts 41°
2026-05-06 11:59 40.03154 -73.38921 13151 ft 400 kts 42°
2026-05-06 11:59 40.05200 -73.36473 12901 ft 398 kts 42°
2026-05-06 11:59 40.07212 -73.34071 12652 ft 397 kts 42°
2026-05-06 11:59 40.09253 -73.31644 12402 ft 396 kts 42°
2026-05-06 12:00 40.11289 -73.29232 12153 ft 395 kts 42°
2026-05-06 12:00 40.13322 -73.26822 11904 ft 394 kts 42°
2026-05-06 12:00 40.15341 -73.24419 11654 ft 391 kts 42°
2026-05-06 12:00 40.17346 -73.22021 11405 ft 389 kts 42°
2026-05-06 12:01 40.19339 -73.19636 11134 ft 388 kts 42°
2026-05-06 12:01 40.21324 -73.17260 10674 ft 385 kts 42°
2026-05-06 12:01 40.23274 -73.14927 10417 ft 374 kts 42°
2026-05-06 12:01 40.25160 -73.12671 10259 ft 361 kts 42°
2026-05-06 12:02 40.26960 -73.10521 10117 ft 349 kts 42°
2026-05-06 12:02 40.28723 -73.08411 9980 ft 338 kts 42°
2026-05-06 12:02 40.30432 -73.06365 9825 ft 328 kts 42°
2026-05-06 12:02 40.32103 -73.04362 9571 ft 324 kts 42°
2026-05-06 12:03 40.33754 -73.02373 9336 ft 321 kts 42°
2026-05-06 12:03 40.35390 -73.00405 9118 ft 320 kts 41°
2026-05-06 12:03 40.37037 -72.98425 8906 ft 322 kts 41°
2026-05-06 12:03 40.38682 -72.96451 8697 ft 320 kts 41°
2026-05-06 12:04 40.40301 -72.94504 8494 ft 319 kts 41°
2026-05-06 12:04 40.41933 -72.92542 8283 ft 318 kts 41°
2026-05-06 12:04 40.43556 -72.90585 7929 ft 317 kts 41°
2026-05-06 12:04 40.45179 -72.88627 7567 ft 316 kts 41°
2026-05-06 12:05 40.46791 -72.86682 7217 ft 315 kts 41°
2026-05-06 12:05 40.48396 -72.84741 7029 ft 313 kts 41°
2026-05-06 12:05 40.49996 -72.82802 7027 ft 313 kts 41°
2026-05-06 12:05 40.51650 -72.80950 7019 ft 312 kts 32°
2026-05-06 12:06 40.53606 -72.79826 7012 ft 305 kts
2026-05-06 12:06 40.55693 -72.79666 7036 ft 299 kts 353°
2026-05-06 12:06 40.57764 -72.79787 6998 ft 296 kts 351°
2026-05-06 12:06 40.59792 -72.79910 6703 ft 296 kts 352°
2026-05-06 12:07 40.61858 -72.79942 6323 ft 297 kts 354°
2026-05-06 12:07 40.63921 -72.79905 5987 ft 296 kts 355°
2026-05-06 12:07 40.65970 -72.79869 5650 ft 294 kts 354°
2026-05-06 12:07 40.68012 -72.79868 5292 ft 293 kts 354°
2026-05-06 12:08 40.70050 -72.79885 4930 ft 293 kts 354°
2026-05-06 12:08 40.72085 -72.79894 4575 ft 292 kts 354°
2026-05-06 12:08 40.74118 -72.79890 4224 ft 292 kts 354°
2026-05-06 12:08 40.76145 -72.79884 3866 ft 292 kts 354°
2026-05-06 12:09 40.78146 -72.79882 3520 ft 291 kts 354°
2026-05-06 12:09 40.80169 -72.79879 3189 ft 290 kts 354°
2026-05-06 12:09 40.82163 -72.79882 3024 ft 282 kts 354°
2026-05-06 12:09 40.84072 -72.79878 3020 ft 267 kts 354°
2026-05-06 12:10 40.85876 -72.79874 3017 ft 252 kts 354°
2026-05-06 12:10 40.87587 -72.79878 3011 ft 240 kts 353°
2026-05-06 12:10 40.89249 -72.79885 3015 ft 239 kts 353°
2026-05-06 12:10 40.90901 -72.79952 3006 ft 234 kts 343°
2026-05-06 12:11 40.92316 -72.80776 3008 ft 215 kts 308°
2026-05-06 12:11 40.93020 -72.82338 3021 ft 194 kts 271°
2026-05-06 12:11 40.92918 -72.83996 3033 ft 173 kts 250°
2026-05-06 12:11 40.92637 -72.85509 3031 ft 168 kts 252°
2026-05-06 12:12 40.92448 -72.87041 3024 ft 170 kts 256°
2026-05-06 12:12 40.92341 -72.88598 3020 ft 170 kts 258°
2026-05-06 12:12 40.92248 -72.90139 2882 ft 168 kts 258°
2026-05-06 12:12 40.92139 -72.91691 2759 ft 170 kts 257°
2026-05-06 12:13 40.92010 -72.93248 2626 ft 169 kts 254°
2026-05-06 12:13 40.91530 -72.94603 2491 ft 163 kts 225°
2026-05-06 12:13 40.90723 -72.95634 2379 ft 163 kts 223°
2026-05-06 12:13 40.89901 -72.96679 2264 ft 164 kts 224°
2026-05-06 12:14 40.89098 -72.97757 2146 ft 165 kts 224°
2026-05-06 12:14 40.88301 -72.98821 2060 ft 157 kts 224°
2026-05-06 12:14 40.87569 -72.99778 2005 ft 140 kts 223°
2026-05-06 12:14 40.86905 -73.00655 1959 ft 132 kts 223°
2026-05-06 12:15 40.86258 -73.01507 1786 ft 131 kts 223°
2026-05-06 12:15 40.85614 -73.02357 1608 ft 131 kts 223°
2026-05-06 12:15 40.84981 -73.03192 1440 ft 130 kts 222°
2026-05-06 12:15 40.84343 -73.04032 1268 ft 129 kts 222°
2026-05-06 12:16 40.83707 -73.04868 1085 ft 128 kts 222°
2026-05-06 12:16 40.83069 -73.05696 935 ft 128 kts 222°
2026-05-06 12:16 40.82441 -73.06531 774 ft 128 kts 222°
2026-05-06 12:16 40.81811 -73.07359 584 ft 127 kts 222°
2026-05-06 12:17 40.81186 -73.08184 423 ft 127 kts 223°
2026-05-06 12:17 40.80563 -73.09011 238 ft 126 kts 222°
2026-05-06 12:17 40.79948 -73.09821 114 ft 118 kts 223°
2026-05-06 12:17 40.79570 -73.10313 113 ft 37 kts 225°
2026-05-06 12:18 40.79404 -73.10533 113 ft 33 kts 224°
2026-05-06 12:18 40.79280 -73.10690 113 ft 20 kts 217°
2026-05-06 12:18 40.79203 -73.10720 113 ft 1 kts 179°
2026-05-06 12:18 40.79189 -73.10720 113 ft 3 kts 179°
2026-05-06 12:19 40.79157 -73.10719 113 ft 6 kts 179°
2026-05-06 12:19 40.79116 -73.10698 113 ft 7 kts 118°
2026-05-06 12:19 40.79113 -73.10621 113 ft 10 kts 90°
2026-05-06 12:19 40.79113 -73.10519 113 ft 12 kts 90°
2026-05-06 12:20 40.79113 -73.10395 113 ft 15 kts 90°
2026-05-06 12:20 40.79112 -73.10245 113 ft 18 kts 91°
2026-05-06 12:20 40.79110 -73.10071 113 ft 20 kts 90°
2026-05-06 12:20 40.79106 -73.09875 113 ft 22 kts 92°
2026-05-06 12:21 40.79104 -73.09761 113 ft 7 kts 103°
2026-05-06 12:21 40.79064 -73.09728 113 ft 8 kts 181°
2026-05-06 12:21 40.79047 -73.09729 113 ft 0 kts 181°